Location: CCZU
(31.6840°N, 119.9550°E)
Time: 03:19:46
(UTC+08:00)

ISS - Visible Passes

Search period start: 16 October 2019 00:00
Search period end: 26 October 2019 00:00
Orbit: 411 x 421 km, 51.6° (Epoch: 15 October)

Date Brightness Start Highest point End Pass type
(mag) Time Alt. Az. Time Alt. Az. Time Alt. Az.
22 Oct -0.7 05:01:59 10° SSE 05:03:57 15° SE 05:05:56 10° E visible
24 Oct -3.0 05:00:07 11° SSW 05:03:18 53° SE 05:06:35 10° NE visible
25 Oct -1.7 04:14:46 26° SE 04:14:49 26° SE 04:17:41 10° ENE visible
